SCP
0 0 0 0 0 0 0 0 0 0 0 0 0 0 0 0 0 0 0 0 0 0 0 0 0 0 0 0 0 0 0 0 0 0 0 0 0 0
0 0 0 0 0 0 0 0 0 0 0 0 0 0 0 0 0 0 0 0 0 0 0 0 0 0 0 0 0 0 0 0 0 0 0 0 0 0
0 0 0 0 0 0 0 0 0 0 0 0 0 0 0 0 0 0 0 0 0 0 0 0 0 0 0 0 0 0 0 0 0 0 0 0 0 0
0 0 0 0 0 0 0 0 0 0 0 0 0 0 0 0 0 0 0 0 0 0 0 0 0 0 0 0 0 0 0 0 0 0 0 0 0 0
0 0 0 0 0 0 0 0 0 0 0 0 0 0 0 0 0 0 0 0 0 0 0 0 0 0 0 0 0 0 0 0 0 0 0 0 0 0
0 0 0 0 0 0 0 0 0 0 0 0 0 0 0 0 0 0 0 0 0 0 0 0 0 0 0 0 0 0 0 0 0 0 0 0 0 0
0 0 0 0 0 0 0 0 0 0 0 0 0 0 0 0 0 0 0 0 0 0 0 0 0 0 0 0 0 0 0 0 0 0 0 0 0 0
0 0 0 0 0 0 0 0 0 0 0 0 0 0 0 0 0 0 0 0 0 0 0 0 0 0 0 0 0 0 0 0 0 0 0 0 0 0
0 0 0 0 0 0 0 0 0 0 0 0 0 0 0 0 0 0 0 0 0 0 0 0 0 0 0 0 0 0 0 0 0 0 0 0 0 0
0 0 0 0 0 0 0 0 0 0 0 0 0 0 0 0 0 0 0 0 0 0 0 0 0 0 0 0 0 0 0 0 0 0 0 0 0 0
0 0 0 0 0 0 0 0 0 0 0 0 0 0 0 0 0 0 0 0 0 0 0 0 0 0 0 0 0 0 0 0 0 0 0 0 0 0
0 0 0 0 0 0 0 0 0 0 0 0 0 0 0 0 0 0 0 0 0 0 0 0 0 0 0 0 0 0 0 0 0 0 0 0 0 0
0 0 0 0 0 0 0 0 0 0 0 0 0 0 0 0 0 0 0 0 0 0 0 0 0 0 0 0 0 0 0 0 0 0 0 0 0 0
0 0 0 0 0 0 0 0 0 0 0 0 0 0 0 0 0 0 0 0 0 0 0 0 0 0 0 0 0 0 0 0 0 0 0 0 0 0
0 0 0 0 0 0 0 0 0 0 0 0 0 0 0 0 0 0 0 0 0 0 0 0 0 0 0 0 0 0 0 0 0 0 0 0 0 0
0 0 0 0 0 0 0 0 0 0 0 0 0 0 0 0 0 0 0 0 0 0 0 0 0 0 0 0 0 0 0 0 0 0 0 0 0 0
0 0 0 0 0 0 0 0 0 0 0 0 0 0 0 0 0 0 0 0 0 0 0 0 0 0 0 0 0 0 0 0 0 0 0 0 0 0
0 0 0 0 0 0 0 0 0 0 0 0 0 0 0 0 0 0 0 0 0 0 0 0 0 0 0 0 0 0 0 0 0 0 0 0 0 0
0 0 0 0 0 0 0 0 0 0 0 0 0 0 0 0 0 0 0 0 0 0 0 0 0 0 0 0 0 0 0 0 0 0 0 0 0 0
0 0 0 0 0 0 0 0 0 0 0 0 0 0 0 0 0 0 0 0 0 0 0 0 0 0 0 0 0 0 0 0 0 0 0 0 0 0
0 0 0 0 0 0 0 0 0 0 0 0 0 0 0 0 0 0 0 0 0 0 0 0 0 0 0 0 0 0 0 0 0 0 0 0 0 0
0 0 0 0 0 0 0 0 0 0 0 0 0 0 0 0 0 0 0 0 0 0 0 0 0 0 0 0 0 0 0 0 0 0 0 0 0 0
0 0 0 0 0 0 0 0 0 0 0 0 0 0 0 0 0 0 0 0 0 0 0 0 0 0 0 -0 0 0 0 0 0 0 0 0 0 0
Wind_Speed
4 5 4 4 4 4 4 4 4 7 7 5 3 3 3 4 8 6 5 14 20 21 21 21 22 22 22 22 22 23 23 23 23 24 24 25 25 25
4 5 5 4 4 4 4 4 5 6 9 5 4 5 6 7 12 8 6 18 20 21 22 22 22 23 23 23 23 23 23 24 24 24 25 25 25 25
5 6 6 6 5 4 4 5 5 6 11 9 5 5 6 7 8 6 7 7 8 19 22 23 23 23 23 23 23 23 24 24 24 24 25 25 25 25
6 6 7 5 6 5 5 6 6 6 8 12 7 5 7 7 7 8 8 8 6 16 22 23 23 23 23 23 23 23 24 24 24 24 24 24 25 25
6 6 7 6 7 6 6 6 6 6 6 8 9 5 5 6 8 8 9 7 9 13 18 19 21 22 22 23 23 23 23 24 24 23 23 24 24 24
6 6 7 7 8 8 7 7 6 6 6 8 9 7 6 6 6 7 7 5 7 8 12 15 18 21 22 23 23 23 23 23 24 23 23 23 23 23
6 7 8 10 13 11 9 7 6 6 6 7 9 8 7 5 6 6 8 7 7 6 7 7 8 7 9 15 20 22 23 24 23 23 23 23 22 22
7 7 8 10 14 18 20 18 14 9 8 8 8 9 9 7 7 7 7 8 8 4 5 7 5 6 6 6 16 22 23 23 23 22 22 22 22 21
7 7 8 9 12 8 13 18 16 19 19 12 10 11 10 8 8 9 8 10 10 6 6 8 5 7 7 10 20 22 23 23 22 21 20 20 20 20
8 8 8 8 9 10 8 8 8 9 12 10 9 10 10 9 9 11 11 11 9 6 6 8 6 6 8 6 16 20 21 20 19 18 19 19 19 18
8 8 8 8 15 19 11 9 9 8 14 19 20 19 22 23 18 9 7 9 9 5 4 5 5 5 5 6 10 16 17 18 18 18 18 18 17 16
6 7 12 14 18 19 10 8 10 9 8 10 12 14 13 14 20 10 6 7 8 6 3 3 4 3 5 4 3 4 7 13 17 18 18 17 16 8
5 5 6 16 20 20 17 9 14 14 8 7 7 7 6 6 6 6 5 5 7 6 3 3 3 3 4 5 4 4 5 5 6 8 13 16 17 12
6 5 7 17 20 20 16 16 21 18 6 5 6 6 6 5 5 5 5 5 6 8 6 5 4 5 6 7 6 4 4 4 5 5 5 11 12 13
7 14 17 20 19 13 16 21 17 8 5 6 7 6 5 5 5 4 5 5 6 6 6 6 7 6 6 7 6 5 5 4 4 4 4 5 4 5
8 12 18 19 15 15 14 11 6 6 7 6 6 5 4 4 4 3 4 4 4 5 6 7 7 7 7 7 6 7 5 4 4 5 5 5 4 4
9 5 5 5 6 6 6 6 5 6 6 5 5 5 4 4 4 3 3 3 4 5 5 4 4 5 6 6 6 7 6 5 5 5 4 5 4 4
12 6 6 6 6 6 6 6 5 5 5 5 5 5 5 5 5 4 4 4 5 5 5 4 3 3 3 4 7 6 5 4 4 4 3 4 4 4
8 6 6 6 6 6 5 5 5 5 4 4 4 4 4 4 4 4 4 4 4 5 5 4 2 2 4 5 4 4 4 4 3 3 3 3 4 4
5 6 6 6 5 5 5 5 5 4 4 4 4 4 4 4 4 5 4 4 5 5 5 3 3 3 4 4 3 4 5 4 3 3 3 3 3 6
5 6 5 5 5 5 5 5 5 5 5 4 4 4 4 4 4 5 4 8 7 4 5 4 4 6 3 1 3 3 3 5 5 3 3 3 3 3
6 6 5 5 5 5 5 5 5 5 5 4 4 4 4 4 5 5 4 4 4 5 5 4 3 3 2 3 4 4 4 4 5 7 7 5 2 2
6 6 5 5 5 5 4 5 6 5 4 4 4 4 4 4 4 4 4 5 5 5 4 4 3 2 2 3 3 3 4 4 2 2 3 6 7 7
Wind_Direction
228 233 236 240 237 236 234 223 244 281 285 271 279 286 297 287 285 280 266 287 294 296 297 297 297 297 297 297 295 294 294 293 292 291 289 288 287 286
226 232 240 241 241 236 235 235 228 247 272 265 265 280 288 291 293 293 283 296 297 297 297 296 296 296 296 296 295 294 294 292 291 290 289 287 286 285
238 238 244 243 245 242 239 239 240 241 267 275 261 273 280 284 290 287 286 282 285 293 295 295 296 297 297 297 296 295 294 293 292 290 290 289 288 287
242 244 250 251 250 247 243 243 244 243 258 277 278 272 271 276 279 281 286 284 277 289 292 293 294 296 297 297 296 295 294 293 292 290 290 289 288 287
243 246 251 252 256 252 250 250 251 258 256 272 281 275 273 277 281 278 275 274 277 284 288 290 291 293 295 297 297 297 297 295 293 290 289 288 287 286
248 249 251 249 252 253 255 253 256 261 263 271 279 281 276 273 274 280 283 271 275 281 283 285 285 290 293 295 297 298 297 295 292 290 289 288 286 285
255 254 255 258 261 264 265 259 255 259 265 271 277 283 280 280 274 275 282 282 271 268 272 272 277 275 281 287 292 293 293 293 292 291 291 289 288 287
257 261 263 265 269 274 276 276 271 267 267 267 273 274 276 272 275 276 281 285 284 253 258 270 269 271 271 266 281 288 292 293 294 294 293 291 289 287
255 262 270 271 277 269 274 278 278 277 276 274 272 271 274 272 272 275 270 272 275 268 273 277 264 266 267 278 288 292 295 296 297 297 295 295 293 290
254 258 262 265 267 273 266 265 262 267 272 275 267 269 270 268 261 267 271 273 271 263 255 274 272 264 272 273 287 292 296 299 301 301 299 298 297 293
258 261 267 267 276 284 282 274 272 269 277 279 280 283 285 288 288 284 279 282 285 274 235 252 269 276 271 268 278 291 301 306 306 305 305 304 302 301
265 265 273 280 285 289 284 277 278 276 273 277 279 283 284 284 287 280 270 278 285 285 254 257 273 290 288 268 274 297 303 301 302 306 307 306 306 304
270 268 268 288 291 293 292 282 281 288 278 272 274 274 274 269 269 265 252 253 270 272 268 270 273 270 267 285 284 275 276 283 294 298 303 305 305 303
275 272 276 292 294 294 294 291 294 297 287 280 279 278 276 270 266 264 260 252 251 261 264 255 261 268 278 282 284 280 281 282 284 287 288 302 305 307
283 289 294 296 298 297 294 296 297 290 281 278 278 274 267 265 266 272 274 268 267 264 264 255 256 263 264 271 276 279 292 286 275 283 291 294 293 298
290 290 294 295 294 291 292 293 283 273 279 272 274 272 272 273 272 270 277 282 282 283 272 259 253 255 264 266 272 280 278 280 295 295 292 289 288 287
293 285 280 283 277 275 275 275 273 278 282 272 273 279 279 279 278 271 271 279 276 284 291 283 263 256 257 262 269 271 274 275 276 282 290 292 287 290
301 288 285 282 282 284 285 284 279 276 273 273 275 275 278 280 281 281 276 272 275 279 283 279 279 298 294 270 248 262 271 275 283 287 287 291 292 296
297 285 284 285 285 285 284 280 281 279 276 274 276 276 274 277 283 285 281 275 276 278 281 274 263 271 289 295 293 261 273 287 294 292 284 284 290 296
276 278 281 282 283 283 283 285 283 282 278 274 270 269 266 272 282 281 277 272 279 281 283 276 259 248 257 276 285 289 280 275 285 292 296 293 285 293
277 276 276 279 281 281 282 279 278 279 277 275 270 266 262 263 273 275 271 280 286 281 279 273 261 278 269 276 283 282 285 283 279 281 293 303 305 310
276 276 275 275 276 275 275 277 277 277 277 272 267 265 262 260 268 271 267 270 273 273 274 273 275 279 255 256 273 281 290 300 300 297 291 278 272 293
277 276 276 276 274 273 272 274 273 272 270 270 267 268 266 264 264 264 266 265 267 272 275 276 277 262 255 254 266 276 283 291 295 304 301 297 288 277